Flag for Slovakia Weather past 2 weeks in Prievidza, Slovakia

Now
42 °F

Scattered clouds.


Feels Like: 38 °F
Forecast: 25 / 43 °F
Wind: 7 mph from North

Location: Prievidza

Current Time: Mar 5, 2015 at 5:38:36 PM

Latest Report: Mar 5, 2015 at 5:00 PM


Visibility: 25 mi

Pressure: 30.37 "Hg

Humidity: 53%

Dew point: 26 °F

Location of PrievidzaLocation

Historic Weather in Prievidza — Graph

°F

Prievidza temperature yesterday

Maximum temperature yesterday: 45 °F (at 2:00 PM)
Minimum temperature yesterday: 27 °F (at 2:00 AM)
Average temperature yesterday: 33 °F

Past Weeks' High & Low Weather Summary

 TemperatureHumidityPressure
High51 °F (Mar 1, 1:00 PM)96% (Feb 24, 2:00 AM)30.70 "Hg (Feb 24, 2:00 AM)
Low19 °F (Feb 19, 7:00 AM)33% (Mar 3, 4:00 PM)29.64 "Hg (Feb 23, 5:00 PM)
Average39 °F78%30.03 "Hg
* Reported Feb 18 4:00 PM — Mar 5 4:00 PM, Prievidza, Weather by CustomWeather, © 2015

Note: Actual official high and low records may vary slightly from our data, if they occured in-between our weather recording intervals... More about our weather records

Advertising

Prievidza weather history for previous 24 hours

 ConditionsComfort  
Time TempWeatherWind HumidityBarometerVisibility
4:00 PM
Thu, Mar 5
43 °FScattered clouds.6 mph47%30.36 "Hg28 mi
3:00 PM44 °FPartly sunny.5 mph39%30.35 "Hg25 mi
2:00 PM47 °FPartly sunny.7 mph36%30.35 "Hg25 mi
1:00 PM46 °FPartly sunny.3 mph40%30.35 "Hg31 mi
12:00 PM46 °FPartly sunny.3 mph40%30.36 "Hg31 mi
11:00 AM45 °FScattered clouds.N/A41%30.36 "Hg31 mi
10:00 AM41 °FScattered clouds.N/A50%30.38 "Hg31 mi
9:00 AM36 °FChilly.2 mph68%30.40 "HgN/A
8:00 AM31 °FScattered clouds.N/A90%30.40 "Hg19 mi
7:00 AM25 °FScattered clouds.1 mph94%30.41 "Hg16 mi
6:00 AM25 °FCold.No wind93%30.40 "Hg7 mi
5:00 AM26 °FChilly.N/A92%30.40 "Hg7 mi
4:00 AM26 °FChilly.No wind92%30.39 "Hg6 mi
3:00 AM28 °FChilly.1 mph92%30.39 "Hg7 mi
2:00 AM27 °FFog.1 mph93%30.39 "Hg5 mi
1:00 AM27 °FChilly.No wind90%30.39 "Hg6 mi
12:00 AM28 °FChilly.1 mph89%30.37 "Hg6 mi
11:00 PM
Wed, Mar 4
28 °FChilly.N/A90%30.36 "Hg6 mi
10:00 PM28 °FChilly.No wind87%30.34 "Hg7 mi
9:00 PM31 °FPassing clouds.1 mph84%30.33 "Hg7 mi
8:00 PM31 °FPassing clouds.N/A79%30.33 "Hg12 mi
7:00 PM36 °FPassing clouds.N/A65%30.30 "Hg22 mi
6:00 PM41 °FPassing clouds.2 mph47%30.27 "Hg31 mi
5:00 PM43 °FPartly sunny.3 mph45%30.25 "Hg31 mi
Weather by CustomWeather, © 2015

See weather overviewHow to use our weather pages